This demonstration page uses our WeatherBlox Daily Observations layout. Learn more.

Left ArrowRight Arrow

38.20091, -84.87328

Hourly Observations for September 16, 2016

Temp ( °F °C ) Dew Point ( °F °C ) Humidity (%) Winds ( mph kmh ) Pressure ( in mb ) Visibility ( mi km ) Precip ( " mm )
12:53 am 00:53 Clear 71 21.7 63 17.2 76 76 E 5 7 30.09 1019 10 16 0.00 0.00
1:53 am 01:53 Clear 71 21.7 63 17.2 76 76 E 3 6 30.08 1019 10 16 0.00 0.00
2:53 am 02:53 Clear 70 21.1 63 17.2 79 79 NE 3 6 30.07 1018 10 16 0.00 0.00
3:53 am 03:53 Clear 67 19.4 63 17.2 87 87 Calm 30.06 1018 10 16 0.00 0.00
4:53 am 04:53 Clear 68 20 63 17.2 84 84 ENE 5 7 30.06 1018 10 16 0.00 0.00
5:53 am 05:53 Clear 67 19.4 63 17.2 87 87 Calm 30.06 1018 9 14 0.00 0.00
6:53 am 06:53 Clear 66 18.9 63 17.2 90 90 ENE 3 6 30.06 1018 7 11 0.00 0.00
7:53 am 07:53 Sunny with Mist and Fog 67 19.4 63 17.2 87 87 ENE 5 7 30.09 1019 5 8 0.00 0.00
8:53 am 08:53 Sunny 70 21.1 65 18.3 84 84 E 3 6 30.09 1019 7 11 0.00 0.00
9:53 am 09:53 Sunny 75 23.9 66 18.9 74 74 ESE 5 7 30.09 1019 10 16 0.00 0.00
10:53 am 10:53 Sunny 80 26.7 67 19.4 64 64 VRB 5 7 30.09 1019 10 16 0.00 0.00
11:53 am 11:53 Sunny 83 28.3 66 18.9 57 57 SSW 7 11 30.08 1019 10 16 0.00 0.00
12:53 pm 12:53 Sunny 85 29.4 66 18.9 53 53 VRB 3 6 30.06 1018 10 16 0.00 0.00
1:53 pm 13:53 Sunny 88 31.1 65 18.3 46 46 SW 6 9 30.04 1017 10 16 0.00 0.00
2:53 pm 14:53 Sunny 90 32.2 64 17.8 42 42 SW 8 13 30.01 1016 10 16 0.00 0.00
3:53 pm 15:53 Sunny 91 32.8 62 16.7 38 38 WSW 7 11 30.01 1016 10 16 0.00 0.00
4:53 pm 16:53 Partly Cloudy 91 32.8 64 17.8 41 41 W 7 11 29.99 1016 10 16 0.00 0.00
5:53 pm 17:53 Mostly Sunny 87 30.6 64 17.8 46 46 W 3 6 29.99 1016 10 16 0.00 0.00
6:53 pm 18:53 Sunny 80 26.7 68 20 67 67 NNW 10 17 30.00 1016 10 16 0.00 0.00
7:53 pm 19:53 Clear 78 25.6 68 20 71 71 Calm 30.01 1016 10 16 0.00 0.00
8:53 pm 20:53 Clear 76 24.4 67 19.4 74 74 Calm 30.01 1016 10 16 0.00 0.00
9:53 pm 21:53 Mostly Cloudy 77 25 68 20 74 74 SSE 6 9 30.04 1017 10 16 0.00 0.00
10:53 pm 22:53 Mostly Cloudy 76 24.4 67 19.4 74 74 SSE 6 9 30.02 1017 10 16 0.00 0.00
11:53 pm 23:53 Clear 75 23.9 66 18.9 74 74 Calm 30.01 1016 10 16 0.00 0.00

Powered by AerisWeather